TimeMST,TemperatureF,Dew PointF,Humidity,Sea Level PressureIn,VisibilityMPH,Wind Direction,Wind SpeedMPH,Gust SpeedMPH,PrecipitationIn,Events,Conditions,WindDirDegrees,DateUTC
12:53 AM,19.0,15.1,85,30.02,10.0,WNW,4.6,-,N/A,,Clear,290,2012-12-11 07:53:00
1:53 AM,17.1,12.9,84,30.04,10.0,West,6.9,-,N/A,,Clear,270,2012-12-11 08:53:00
2:53 AM,15.1,10.0,80,30.04,10.0,West,5.8,-,N/A,,Clear,280,2012-12-11 09:53:00
3:53 AM,12.9,10.0,88,30.05,10.0,West,4.6,-,N/A,,Clear,280,2012-12-11 10:53:00
4:53 AM,8.1,6.1,92,30.06,10.0,NNW,3.5,-,N/A,,Clear,340,2012-12-11 11:53:00
5:53 AM,14.0,10.0,84,30.06,10.0,WNW,5.8,-,N/A,,Clear,290,2012-12-11 12:53:00
6:53 AM,14.0,9.0,80,30.06,10.0,West,3.5,-,N/A,,Clear,260,2012-12-11 13:53:00
7:53 AM,9.0,3.9,80,30.08,10.0,Calm,Calm,-,N/A,,Clear,0,2012-12-11 14:53:00
8:53 AM,19.0,14.0,81,30.03,10.0,Calm,Calm,-,N/A,,Clear,0,2012-12-11 15:53:00
9:53 AM,27.0,17.1,66,30.01,10.0,Calm,Calm,-,N/A,,Clear,0,2012-12-11 16:53:00
10:53 AM,33.1,16.0,50,29.95,10.0,West,4.6,-,N/A,,Clear,260,2012-12-11 17:53:00
11:53 AM,39.0,12.9,34,29.89,10.0,West,13.8,21.9,N/A,,Clear,280,2012-12-11 18:53:00
12:53 PM,41.0,15.1,35,29.84,10.0,West,16.1,26.5,N/A,,Clear,270,2012-12-11 19:53:00
1:53 PM,43.0,16.0,34,29.81,10.0,West,17.3,23.0,N/A,,Clear,260,2012-12-11 20:53:00
2:53 PM,42.1,17.1,37,29.81,10.0,West,18.4,31.1,N/A,,Clear,280,2012-12-11 21:53:00
3:53 PM,42.1,18.0,38,29.80,10.0,West,15.0,27.6,N/A,,Clear,270,2012-12-11 22:53:00
4:53 PM,39.0,19.0,45,29.82,10.0,WSW,15.0,-,N/A,,Clear,240,2012-12-11 23:53:00
5:53 PM,39.0,19.0,45,29.80,10.0,West,16.1,24.2,N/A,,Clear,270,2012-12-12 00:53:00
6:53 PM,39.0,19.0,45,29.80,10.0,West,17.3,-,N/A,,Clear,270,2012-12-12 01:53:00
7:53 PM,39.9,18.0,41,29.79,10.0,West,20.7,26.5,N/A,,Scattered Clouds,260,2012-12-12 02:53:00
8:53 PM,39.9,18.0,41,29.77,10.0,SW,13.8,25.3,N/A,,Clear,220,2012-12-12 03:53:00
9:53 PM,39.0,19.9,46,29.74,10.0,West,17.3,26.5,N/A,,Clear,270,2012-12-12 04:53:00
10:53 PM,36.0,19.0,50,29.74,10.0,SW,10.4,-,N/A,,Clear,230,2012-12-12 05:53:00
11:53 PM,37.9,19.0,47,29.72,10.0,SW,10.4,-,N/A,,Clear,230,2012-12-12 06:53:00